Regional Weather Roundup
Issued by NWS Sterling, VA

Home | Current Version | Previous Version | Graphics & Text | Print | Product List | Glossary On
Versions: 1 2 3 4 5 6 7 8 9 10 11 12 13 14 15 16 17 18 19 20 21 22 23 24 25 26 27
000
ASUS41 KLWX 221010
RWRLWX

REGIONAL WEATHER ROUNDUP
NATIONAL WEATHER SERVICE BALTIMORE MD/WASHINGTON DC
600 AM EDT TUE APR 22 2014

Note: "FAIR" indicates few or no clouds below 12,000 feet
with no significant weather and/or obstructions to visibility.
 TC=TEMPERATURE CELSIUS

 * =Non NWS site. Station does not report precipitation (e.g. rain,
    snow, etc.), thunder, or fog.

DCZ001-MDZ009-015-VAZ040>042-051-053>054-221100-
WASHINGTON METRO

CITY           SKY/WX    TMP DP  RH WIND       PRES   REMARKS
WASHINGTON NAT MOCLDY    53  46  77 S9        29.78F
DULLES         CLOUDY    49  42  77 S3        29.76F
ANDREWS AFB    MOCLDY    49  46  89 S7        29.77F
FT BELVOIR     PTCLDY    49  46  88 SE2       29.78F
QUANTICO       PTCLDY    54  46  74 SW6       29.79F
COLLEGE PARK*  MOCLDY    50  46  87 CALM      29.77F
LEESBURG*      PTCLDY    50  43  76 CALM      29.77F
MANASSAS*      PTCLDY    45  43  93 CALM      29.77F
GAITHERSBURG*  PTCLDY    52  43  71 CALM      29.79F

$$

MDZ006>007-011-014-221100-
BALTIMORE METRO

CITY           SKY/WX    TMP DP  RH WIND       PRES   REMARKS
BWI AIRPORT    CLOUDY    48  44  86 CALM      29.76F
MD SCIENCE CTR   N/A     52  46  80 MISG      29.78F
MARTIN STATE   MOCLDY    54  52  94 S3        29.79F
ANNAPOLIS      CLOUDY    52  48  86 S6        29.77F
FORT MEADE*    CLOUDY    43  39  87 CALM      29.79F

$$

MDZ012-015-019>023-221100-
MARYLAND EASTERN SHORE

CITY           SKY/WX    TMP DP  RH WIND       PRES   REMARKS
OCEAN CITY     CLEAR     39  37  92 CALM      29.81F
SALISBURY      PTCLDY    43  38  82 CALM      29.80F
BAY BRIDGE AP* CLOUDY    52  50  93 S6        29.78F
CAMBRIDGE*     MOCLDY    46  45  93 SE3       29.79F
EASTON*        MOCLDY    50  50 100 SW5       29.82F

$$

MDZ017>025-221100-
SOUTHERN MARYLAND

CITY           SKY/WX    TMP DP  RH WIND       PRES   REMARKS
PATUXENT RIVER MOCLDY    49  46  90 S5        29.80S
ST INIGOES     PTCLDY    50  47  89 S5        29.80S
LEONARDTOWN*   PTCLDY    48  45  87 S3        29.81S

$$

MDZ003>005-221100-
NORTH CENTRAL MARYLAND

CITY           SKY/WX    TMP DP  RH WIND       PRES   REMARKS
FREDERICK*     PTCLDY    46  45  93 S3        29.78F
HAGERSTOWN APT MOCLDY    53  35  50 S3        29.73F
WESTMINSTER*   PTCLDY    52  43  71 S5        29.75F

$$

MDZ501>502-221100-
WESTERN MARYLAND

CITY           SKY/WX    TMP DP  RH WIND       PRES   REMARKS
OAKLAND*       CLOUDY    57  28  33 SW9       29.79F
CUMBERLAND*    CLOUDY    54  41  62 CALM      29.78F

$$

VAZ025>031-221100-
SHENANDOAH VALLEY

CITY           SKY/WX    TMP DP  RH WIND       PRES   REMARKS
WINCHESTER*    PTCLDY    59  32  36 SW7       29.74F
STAUNTON*      PTCLDY    46  39  76 CALM      29.80F

$$

WVZ021-048>050-054>055-221100-
EASTERN WEST VIRGINIA PANHANDLE

CITY           SKY/WX    TMP DP  RH WIND       PRES   REMARKS
MARTINSBURG    PTCLDY    46  37  71 CALM      29.74F
PETERSBURG*    CLOUDY    54  50  86 CALM      29.77F

$$

VAZ036>039-050-221100-
CENTRAL FOOTHILLS

CITY           SKY/WX    TMP DP  RH WIND       PRES   REMARKS
CHARLOTTESVILL CLEAR     53  33  46 SW5       29.76F
CULPEPER*      PTCLDY    46  39  76 CALM      29.78S

$$

VAZ055>057-221100-
NORTH AND CENTRAL PIEDMONT

CITY           SKY/WX    TMP DP  RH WIND       PRES   REMARKS
FREDERICKSBRG* MOCLDY    52  46  82 SE3       29.77F
STAFFORD*      PTCLDY    50  48  95 CALM      29.82S

$$

NCZ024-NYZ072-PAZ021-071-VAZ022-071-221100-
OTHER REGIONAL OBSERVATIONS

CITY           SKY/WX    TMP DP  RH WIND       PRES   REMARKS
NEW YORK CITY  MOCLDY    52  44  74 CALM      29.79F
PHILADELPHIA   MOCLDY    48  43  82 S6        29.79F
PITTSBURGH     CLOUDY    62  43  49 W7        29.72F
ROANOKE        PTCLDY    59  41  51 NW5       29.82F
RICHMOND       MOCLDY    50  45  83 S6        29.80F
RALEIGH        MOCLDY    50  41  71 CALM      29.83F

$$

ANZ530>537-221100-
MARINE OBSERVATIONS

STATION/POSITION TIME  TEMP    WIND        PRES
                       AIR SEA DIR/SP/G
                 (UTC) (F)     (DEG/KT/KT) (MB)
THOMAS PT LIGHT  1000   53 54  180/ 13/ 14 1008.8F
BALT KEY BRIDGE  1000   53     190/  5/  7 1008.3F
COVE POINT       1000   51     190/ 11/ 12 1008.8F
LEWISETTA        1000   51 57  230/  6/  8 1008.8R
SOLOMONS ISLAND  1000      54                N/A
PINEY POINT      1000          210/  6/  8   N/A

$$




USA.gov is the U.S. government's official web portal to all federal, state and local government web resources and services.